Location: Unspecified
(0.0000°N, 0.0000°E)
Time: 22:50:42
(UTC+02:00)

Cosmos 1125 Rocket - Visible Passes

Search period start: 24 April 2018 00:00
Search period end: 04 May 2018 00:00
Orbit: 757 x 781 km, 74.0° (Epoch: 24 April)

Date Brightness Start Highest point End Pass type
(mag) Time Alt. Az. Time Alt. Az. Time Alt. Az.
24 Apr 6.3 05:39:39 10° NE 05:42:38 15° ENE 05:45:37 10° ESE visible
24 Apr 4.2 07:19:52 10° NW 07:24:26 30° WSW 07:28:59 10° SSW visible
25 Apr 3.4 06:42:33 10° NNW 06:47:43 63° WSW 06:52:53 10° S visible
26 Apr 3.8 06:05:50 10° N 06:11:01 64° ENE 06:16:12 10° SSE visible
27 Apr 5.2 05:29:44 10° NNE 05:34:19 31° ENE 05:38:53 10° SE visible
27 Apr 5.0 07:13:11 10° WNW 07:16:06 15° WSW 07:19:00 10° SW visible
28 Apr6.605:03:10SE05:03:10SE04:54:07NEvisible
28 Apr 5.6 06:43:46 11° SSW 06:43:46 11° SSW 06:43:57 10° SSW visible
